Weather History for Morgantown, WV

Change the Weather History Date:

Tuesday, January 18, 2005

  Actual Average Record
Temperature  
Mean Temperature 9 °F 31 °F  
Max Temperature 15 °F 39 °F 68 °F (1996)
Min Temperature 3 °F 24 °F -13 °F (1994)
Degree Days  
Heating Degree Days 56 34  
Month to date heating degree days 609  
Since 1 July heating degree days 2593  
Cooling Degree Days 0 0  
Month to date cooling degree days 0  
Year to date cooling degree days 0  
Moisture  
Dew Point -1 °F    
Average Humidity 64    
Maximum Humidity 80    
Minimum Humidity 47    
Precipitation  
Precipitation 0.00 in 0.09 in 0.50 in (2004)
Month to date precipitation 1.62  
Year to date precipitation 1.62  
Sea Level Pressure  
Sea Level Pressure 30.70 in    
Wind  
Wind Speed 4 mph (WSW)    
Max Wind Speed 7 mph    
Max Gust Speed -    
Visibility 10 miles    
Events      
T = Trace of Precipitation, MM = Missing Value Source: NWS Daily Summary

Daily Weather History Graph

Daily Weather History Graph

Search for Another Location

Airport:

Trip Planner

Search our weather history database for the weather conditions in past years. The results will help you decide how hot, cold, wet, or windy it might be!

Date:

Astronomy

Jan. 18, 2005 Rise Set
Actual Time 7:37 AM EST 5:23 PM EST
Civil Twilight 7:07 AM EST 5:52 PM EST
Nautical Twilight 6:34 AM EST 6:25 PM EST
Astronomical Twilight 6:02 AM EST 6:58 PM EST
Moon 12:14 PM EST 1:50 AM EST
Length of Visible Light 10h 44m
Length of Day
9h 46m
Waxing Gibbous, 64% of the Moon is Illuminated
Jan 18
Waxing Gibbous
Jan 25
Full
Feb 2
Last Quarter
Feb 8
New
Feb 15
First Quarter

Hourly Weather History & Observations

Time (EST) Temp. Windchill Dew Point Humidity Pressure Visibility Wind Dir Wind Speed Gust Speed Precip Events Conditions
12:53 AM 7.0 °F -1.7 °F -2.0 °F 67% 30.65 in 10.0 mi Variable 4.6 mph - N/A   Clear
1:53 AM 6.1 °F -2.8 °F -2.0 °F 69% 30.66 in 10.0 mi Variable 4.6 mph - N/A   Clear
2:53 AM 6.1 °F -2.8 °F -2.0 °F 69% 30.68 in 10.0 mi WNW 4.6 mph - N/A   Clear
3:53 AM 5.0 °F -4.1 °F -0.9 °F 76% 30.69 in 10.0 mi Variable 4.6 mph - N/A   Clear
4:53 AM 3.9 °F -3.4 °F -2.0 °F 76% 30.70 in 10.0 mi WNW 3.5 mph - N/A   Clear
5:53 AM 3.9 °F -3.4 °F -2.0 °F 76% 30.73 in 10.0 mi WNW 3.5 mph - N/A   Clear
6:53 AM 3.0 °F - -2.0 °F 80% 30.76 in 10.0 mi Calm Calm - N/A   Clear
7:53 AM 3.0 °F -4.4 °F -2.0 °F 80% 30.78 in 10.0 mi WSW 3.5 mph - N/A   Clear
8:53 AM 5.0 °F -4.1 °F -0.9 °F 76% 30.80 in 10.0 mi WNW 4.6 mph - N/A   Partly Cloudy
9:53 AM 8.1 °F - -0.9 °F 67% 30.82 in 10.0 mi Calm Calm - N/A   Partly Cloudy
10:26 AM 8.6 °F - -0.4 °F 67% 30.73 in 10.0 mi Calm Calm - N/A   Mostly Cloudy
10:53 AM 10.0 °F 1.8 °F -0.9 °F 61% 30.82 in 10.0 mi Variable 4.6 mph - N/A   Overcast
11:26 AM 10.4 °F 0.8 °F -2.2 °F 57% 30.73 in 10.0 mi NW 5.8 mph - N/A   Overcast
11:53 AM 12.0 °F 2.7 °F -0.0 °F 59% 30.80 in 10.0 mi West 5.8 mph - N/A   Scattered Clouds
12:53 PM 12.0 °F 5.9 °F -0.9 °F 56% 30.78 in 10.0 mi Variable 3.5 mph - N/A   Scattered Clouds
1:53 PM 12.0 °F 5.9 °F -0.9 °F 56% 30.74 in 10.0 mi Variable 3.5 mph - N/A   Partly Cloudy
2:53 PM 15.1 °F 5.2 °F -2.0 °F 47% 30.70 in 10.0 mi South 6.9 mph - N/A   Clear
3:53 PM 15.1 °F 6.4 °F -0.9 °F 49% 30.68 in 10.0 mi Variable 5.8 mph - N/A   Clear
4:53 PM 15.1 °F 9.4 °F -0.9 °F 49% 30.68 in 10.0 mi Variable 3.5 mph - N/A   Clear
5:53 PM 14.0 °F 8.2 °F -0.0 °F 54% 30.72 in 10.0 mi West 3.5 mph - N/A   Clear
6:53 PM 9.0 °F 0.6 °F -2.0 °F 61% 30.65 in 10.0 mi SSE 4.6 mph - N/A   Clear
7:53 PM 10.0 °F 1.8 °F -2.0 °F 58% 30.63 in 10.0 mi ESE 4.6 mph - N/A   Clear
8:53 PM 9.0 °F - -0.0 °F 67% 30.61 in 10.0 mi Calm Calm - N/A   Clear
9:53 PM 10.0 °F 0.4 °F -0.9 °F 61% 30.56 in 10.0 mi South 5.8 mph - N/A   Clear
10:53 PM 10.0 °F 3.6 °F -0.0 °F 64% 30.52 in 10.0 mi South 3.5 mph - N/A   Mostly Cloudy
11:53 PM 10.0 °F 3.6 °F 1.0 °F 67% 30.48 in 10.0 mi South 3.5 mph - N/A   Mostly Cloudy